Flag for U.S.A. Weather past 2 weeks in Amarillo, Texas, U.S.A.

Now
59 °F

Clear.


Feels Like: 57 °F
Forecast: 55 / 87 °F
Wind: 10 mph from Southwest

Location: Amarillo International Airport

Current Time: Apr 1, 2015 at 12:48:55 AM

Latest Report: Mar 31, 2015 at 11:53 PM


Visibility: 10 mi

Pressure: 29.75 "Hg

Humidity: 46%

Dew point: 38 °F

Location of AmarilloLocation

Historic Weather in Amarillo — Graph

°F

Amarillo temperature yesterday

Maximum temperature yesterday: 86 °F (at 4:53 PM)
Minimum temperature yesterday: 47 °F (at 5:53 AM)
Average temperature yesterday: 67 °F

Past Weeks' High & Low Weather Summary

 TemperatureHumidityPressure
High86 °F (Mar 31, 4:53 PM)100% (Mar 19, 11:53 AM)30.31 "Hg (Mar 19, 11:53 AM)
Low32 °F (Mar 26, 5:53 AM)9% (Mar 22, 5:53 PM)29.72 "Hg (Mar 24, 3:53 AM)
Average56 °F53%30.00 "Hg
* Reported Mar 16 10:53 PM — Mar 31 10:53 PM, Amarillo, Weather by CustomWeather, © 2015

Note: Actual official high and low records may vary slightly from our data, if they occured in-between our weather recording intervals... More about our weather records

Advertising

Amarillo weather history for previous 24 hours

 ConditionsComfort  
Time TempWeatherWind HumidityBarometerVisibility
10:53 PM
Tue, Mar 31
61 °FClear.8 mph44%29.77 "Hg10 mi
9:53 PM65 °FClear.12 mph37%29.77 "Hg10 mi
8:53 PM70 °FSunny.15 mph30%29.77 "Hg10 mi
7:53 PM77 °FSunny.14 mph18%29.75 "Hg10 mi
6:53 PM83 °FSunny.No wind10%29.74 "Hg10 mi
5:53 PM84 °FSunny.5 mph10%29.75 "Hg10 mi
4:53 PM86 °FSunny.5 mph9%29.76 "Hg10 mi
3:53 PM85 °FSunny.7 mph11%29.79 "Hg10 mi
2:53 PM83 °FSunny.7 mph13%29.82 "Hg10 mi
1:53 PM82 °FSunny.5 mph15%29.85 "Hg10 mi
12:53 PM81 °FSunny.5 mph16%29.88 "Hg10 mi
11:53 AM76 °FSunny.12 mph21%29.89 "Hg10 mi
10:53 AM69 °FSunny.12 mph29%29.92 "Hg10 mi
9:53 AM62 °FSunny.14 mph38%29.92 "Hg10 mi
8:53 AM56 °FSunny.8 mph55%29.93 "Hg10 mi
7:53 AM51 °FClear.7 mph66%29.93 "Hg10 mi
6:53 AM48 °FClear.7 mph74%29.90 "Hg9 mi
5:53 AM47 °FClear.7 mph83%29.90 "Hg10 mi
4:53 AM48 °FClear.10 mph83%29.91 "Hg10 mi
3:53 AM51 °FClear.10 mph77%29.91 "Hg10 mi
2:53 AM53 °FClear.8 mph74%29.91 "Hg10 mi
1:53 AM55 °FClear.8 mph69%29.92 "Hg10 mi
12:53 AM57 °FClear.10 mph62%29.94 "Hg10 mi
Weather by CustomWeather, © 2015

See weather overviewHow to use our weather pages